,,Stat6,,Stat2,,Stat8,,Stat9,,Stat10,,Wind1,,Wind1,
time,status,PA1M_AVG,status,PR1M_SUM,status,RH1M_AVG,status,SR1M_AVG,status,TA1M_AVG,status,W1dAve1m,status,W1sAve1m,
2005-08-16, 00:00:00,VALID,917.186,VALID,0,VALID,90.4543,VALID,-0.0169808,VALID,21.234,VALID,114,VALID,0.450707,
2005-08-16, 00:01:00,VALID,917.164,VALID,0,VALID,90.4391,VALID,0,VALID,21.2076,VALID,126,VALID,0.375545,
2005-08-16, 00:02:00,VALID,917.149,VALID,0,VALID,90.1301,VALID,-0.0169808,VALID,21.2178,VALID,126,VALID,1.20065,
2005-08-16, 00:03:00,VALID,917.157,VALID,0,VALID,88.8674,VALID,-0.0169808,VALID,21.2658,VALID,88,VALID,1.15625,
2005-08-16, 00:04:00,VALID,917.145,VALID,0,VALID,89.1242,VALID,0,VALID,21.3078,VALID,103,VALID,0.750391,
2005-08-16, 00:05:00,VALID,917.153,VALID,0,VALID,89.3722,VALID,-0.0169808,VALID,21.3304,VALID,119,VALID,0.482376,
2005-08-16, 00:06:00,VALID,917.129,VALID,0,VALID,88.9882,VALID,-0.0169808,VALID,21.3565,VALID,129,VALID,0.447743,
2005-08-16, 00:07:00,VALID,917.134,VALID,0,VALID,88.7466,VALID,-0.0339617,VALID,21.2787,VALID,128,VALID,0.145712,
2005-08-16, 00:08:00,VALID,917.129,VALID,0,VALID,89.7206,VALID,-0.0339617,VALID,21.2335,VALID,128,VALID,0.17721,
2005-08-16, 00:09:00,VALID,917.119,VALID,0,VALID,90.008,VALID,-0.0339617,VALID,21.1947,VALID,127,VALID,0.3879,
2005-08-16, 00:10:00,VALID,917.098,VALID,0,VALID,90.0474,VALID,-0.0169808,VALID,21.1979,VALID,122,VALID,0.514172,
2005-08-16, 00:11:00,VALID,917.083,VALID,0,VALID,89.9088,VALID,-0.0339617,VALID,21.2205,VALID,122,VALID,0.529978,
2005-08-16, 00:12:00,VALID,917.051,VALID,0,VALID,90.0067,VALID,-0.0169808,VALID,21.2372,VALID,144,VALID,0.74673,
2005-08-16, 00:13:00,VALID,917.021,VALID,0,VALID,90.0487,VALID,0,VALID,21.2265,VALID,147,VALID,0.567073,
2005-08-16, 00:14:00,VALID,916.998,VALID,0,VALID,88.8864,VALID,-0.0169808,VALID,21.1952,VALID,100,VALID,0.398056,
2005-08-16, 00:15:00,VALID,916.973,VALID,0,VALID,89.7702,VALID,-0.0849042,VALID,21.0789,VALID,93,VALID,0.91654,
2005-08-16, 00:16:00,VALID,916.953,VALID,0,VALID,90.1695,VALID,0,VALID,21.1018,VALID,121,VALID,0.742551,
2005-08-16, 00:17:00,VALID,916.942,VALID,0,VALID,89.0263,VALID,0,VALID,21.111,VALID,80,VALID,0.533067,
2005-08-16, 00:18:00,VALID,916.93,VALID,0,VALID,89.5617,VALID,-0.0169808,VALID,20.9982,VALID,74,VALID,0.894985,
2005-08-16, 00:19:00,VALID,916.929,VALID,0,VALID,90.5878,VALID,-0.0169808,VALID,20.9852,VALID,96,VALID,1.00109,
2005-08-16, 00:20:00,VALID,916.904,VALID,0,VALID,90.1758,VALID,0,VALID,21.0657,VALID,106,VALID,1.12246,
2005-08-16, 00:21:00,VALID,916.904,VALID,0,VALID,89.5108,VALID,-0.0169808,VALID,21.143,VALID,123,VALID,0.994004,
2005-08-16, 00:22:00,VALID,916.886,VALID,0,VALID,89.465,VALID,0,VALID,21.1688,VALID,137,VALID,0.975654,
2005-08-16, 00:23:00,VALID,916.87,VALID,0,VALID,89.9826,VALID,0,VALID,21.1758,VALID,151,VALID,0.842685,
2005-08-16, 00:24:00,VALID,916.854,VALID,0,VALID,90.0817,VALID,-0.0339617,VALID,21.153,VALID,143,VALID,1.1593,
2005-08-16, 00:25:00,VALID,916.85,VALID,0,VALID,90.0207,VALID,-0.0509425,VALID,21.1562,VALID,130,VALID,1.01726,
2005-08-16, 00:26:00,VALID,916.833,VALID,0,VALID,90.378,VALID,-0.0679233,VALID,21.1527,VALID,143,VALID,0.938988,
2005-08-16, 00:27:00,VALID,916.813,VALID,0,VALID,90.7175,VALID,-0.0679233,VALID,21.1333,VALID,154,VALID,1.25514,
2005-08-16, 00:28:00,VALID,916.795,VALID,0,VALID,91.23,VALID,-0.0679233,VALID,21.1209,VALID,157,VALID,1.59479,
2005-08-16, 00:29:00,VALID,916.784,VALID,0,VALID,90.7811,VALID,-0.0679233,VALID,21.1271,VALID,93,VALID,0.724702,
2005-08-16, 00:30:00,VALID,916.756,VALID,0,VALID,90.5955,VALID,-0.0169808,VALID,21.069,VALID,74,VALID,0.632267,
2005-08-16, 00:31:00,VALID,916.731,VALID,0,VALID,91.1181,VALID,-0.0339617,VALID,21.0076,VALID,86,VALID,0.92793,
2005-08-16, 00:32:00,VALID,916.723,VALID,0,VALID,91.4284,VALID,-0.0169808,VALID,20.9917,VALID,104,VALID,0.946584,
2005-08-16, 00:33:00,VALID,916.71,VALID,0,VALID,91.7692,VALID,-0.0339617,VALID,20.9489,VALID,118,VALID,1.05655,
2005-08-16, 00:34:00,VALID,916.695,VALID,0,VALID,91.8149,VALID,0,VALID,20.9624,VALID,121,VALID,1.18182,
2005-08-16, 00:35:00,VALID,916.687,VALID,0,VALID,91.6687,VALID,-0.0509425,VALID,20.975,VALID,119,VALID,1.20368,
2005-08-16, 00:36:00,VALID,916.673,VALID,0,VALID,91.5504,VALID,-0.0509425,VALID,20.9944,VALID,137,VALID,1.13885,
2005-08-16, 00:37:00,VALID,916.678,VALID,0,VALID,91.4474,VALID,0,VALID,21.021,VALID,135,VALID,1.21782,
2005-08-16, 00:38:00,VALID,916.679,VALID,0,VALID,91.1664,VALID,-0.0169808,VALID,21.0237,VALID,135,VALID,1.46152,
2005-08-16, 00:39:00,VALID,916.667,VALID,0,VALID,91.1677,VALID,0,VALID,21.0044,VALID,128,VALID,1.17406,
2005-08-16, 00:40:00,VALID,916.654,VALID,0,VALID,91.3076,VALID,-0.0509425,VALID,20.9949,VALID,124,VALID,0.810213,
2005-08-16, 00:41:00,VALID,916.644,VALID,0,VALID,91.4398,VALID,-0.0169808,VALID,20.9885,VALID,116,VALID,0.971799,
2005-08-16, 00:42:00,VALID,916.632,VALID,0,VALID,91.4691,VALID,-0.0509425,VALID,20.9887,VALID,127,VALID,1.07431,
2005-08-16, 00:43:00,VALID,916.612,VALID,0,VALID,91.4233,VALID,-0.0679233,VALID,20.9944,VALID,139,VALID,1.18955,
2005-08-16, 00:44:00,VALID,916.612,VALID,0,VALID,91.2351,VALID,-0.0169808,VALID,21.0205,VALID,122,VALID,0.902902,
2005-08-16, 00:45:00,VALID,916.619,VALID,0,VALID,91.1677,VALID,-0.0339617,VALID,21.0275,VALID,127,VALID,0.911337,
2005-08-16, 00:46:00,VALID,916.603,VALID,0,VALID,91.2529,VALID,-0.0339617,VALID,21.0073,VALID,124,VALID,1.04833,
2005-08-16, 00:47:00,VALID,916.59,VALID,0,VALID,91.2109,VALID,-0.0169808,VALID,21.0046,VALID,133,VALID,0.953311,
2005-08-16, 00:48:00,VALID,916.573,VALID,0,VALID,91.4017,VALID,-0.0169808,VALID,20.9753,VALID,128,VALID,1.02679,
2005-08-16, 00:49:00,VALID,916.558,VALID,0,VALID,91.5835,VALID,-0.0339617,VALID,20.9691,VALID,139,VALID,1.03691,
2005-08-16, 00:50:00,VALID,916.53,VALID,0,VALID,91.6801,VALID,-0.0169808,VALID,20.9634,VALID,142,VALID,1.35882,
2005-08-16, 00:51:00,VALID,916.517,VALID,0,VALID,91.6623,VALID,-0.0339617,VALID,20.9535,VALID,151,VALID,0.882813,
2005-08-16, 00:52:00,VALID,916.503,VALID,0,VALID,91.5326,VALID,-0.0339617,VALID,20.9365,VALID,150,VALID,1.1806,
2005-08-16, 00:53:00,VALID,916.475,VALID,0,VALID,91.628,VALID,-0.0509425,VALID,20.9241,VALID,138,VALID,1.09284,
2005-08-16, 00:54:00,VALID,916.445,VALID,0,VALID,91.7641,VALID,-0.0339617,VALID,20.9112,VALID,150,VALID,1.17116,
2005-08-16, 00:55:00,VALID,916.427,VALID,0,VALID,91.8989,VALID,-0.0169808,VALID,20.8948,VALID,141,VALID,1.15163,
2005-08-16, 00:56:00,VALID,916.397,VALID,0,VALID,91.9205,VALID,-0.0339617,VALID,20.8888,VALID,136,VALID,1.01962,
2005-08-16, 00:57:00,VALID,916.375,VALID,0,VALID,91.9752,VALID,-0.0339617,VALID,20.8719,VALID,126,VALID,1.36681,
2005-08-16, 00:58:00,VALID,916.36,VALID,0,VALID,91.8404,VALID,-0.0339617,VALID,20.8619,VALID,135,VALID,1.53693,
2005-08-16, 00:59:00,VALID,916.359,VALID,0,VALID,91.6916,VALID,-0.0169808,VALID,20.8985,VALID,129,VALID,1.19215,
2005-08-16, 01:00:00,VALID,916.36,VALID,0,VALID,91.3991,VALID,0,VALID,20.9177,VALID,123,VALID,1.63245,
2005-08-16, 01:01:00,VALID,916.356,VALID,0,VALID,91.1283,VALID,-0.0169808,VALID,20.9527,VALID,126,VALID,0.698864,
2005-08-16, 01:02:00,VALID,916.367,VALID,0,VALID,91.0215,VALID,0,VALID,20.9562,VALID,125,VALID,1.0021,
2005-08-16, 01:03:00,VALID,916.383,VALID,0,VALID,90.982,VALID,-0.0339617,VALID,20.9688,VALID,124,VALID,0.933689,
2005-08-16, 01:04:00,VALID,916.359,VALID,0,VALID,90.9477,VALID,-0.0169808,VALID,20.9691,VALID,105,VALID,0.534766,
2005-08-16, 01:05:00,VALID,916.324,VALID,0,VALID,91.0431,VALID,-0.0169808,VALID,20.9494,VALID,145,VALID,0.951265,
2005-08-16, 01:06:00,VALID,916.294,VALID,0,VALID,91.0736,VALID,-0.0169808,VALID,20.9239,VALID,125,VALID,0.641715,
2005-08-16, 01:07:00,VALID,916.263,VALID,0,VALID,91.1054,VALID,0,VALID,20.9174,VALID,137,VALID,0.922602,
2005-08-16, 01:08:00,VALID,916.222,VALID,0,VALID,91.0418,VALID,-0.0339617,VALID,20.8953,VALID,127,VALID,1.05538,
2005-08-16, 01:09:00,VALID,916.218,VALID,0,VALID,90.9719,VALID,-0.0339617,VALID,20.9077,VALID,138,VALID,0.704578,
2005-08-16, 01:10:00,VALID,916.194,VALID,0,VALID,90.8918,VALID,0,VALID,20.9279,VALID,139,VALID,1.37723,
2005-08-16, 01:11:00,VALID,916.2,VALID,0,VALID,90.6794,VALID,-0.0169808,VALID,20.94,VALID,134,VALID,0.980196,
2005-08-16, 01:12:00,VALID,916.207,VALID,0,VALID,90.6374,VALID,0.0169808,VALID,20.9562,VALID,153,VALID,0.863653,
2005-08-16, 01:13:00,VALID,916.205,VALID,0,VALID,90.64,VALID,-0.0339617,VALID,20.9564,VALID,139,VALID,0.926417,
2005-08-16, 01:14:00,VALID,916.223,VALID,0,VALID,90.626,VALID,0,VALID,20.9796,VALID,138,VALID,0.611506,
2005-08-16, 01:15:00,VALID,916.215,VALID,0,VALID,90.6705,VALID,0,VALID,20.9502,VALID,156,VALID,0.973772,
2005-08-16, 01:16:00,VALID,916.212,VALID,0,VALID,90.7048,VALID,-0.0169808,VALID,20.9298,VALID,135,VALID,0.741477,
2005-08-16, 01:17:00,VALID,916.194,VALID,0,VALID,90.7353,VALID,0,VALID,20.9241,VALID,136,VALID,0.59747,
2005-08-16, 01:18:00,VALID,916.184,VALID,0,VALID,90.7811,VALID,0,VALID,20.9182,VALID,144,VALID,0.920455,
2005-08-16, 01:19:00,VALID,916.152,VALID,0,VALID,90.5993,VALID,0,VALID,20.9244,VALID,144,VALID,1.29794,
2005-08-16, 01:20:00,VALID,916.128,VALID,0,VALID,90.3348,VALID,0,VALID,20.9693,VALID,153,VALID,1.08984,
2005-08-16, 01:21:00,VALID,916.119,VALID,0,VALID,90.2064,VALID,0.0339617,VALID,20.9982,VALID,138,VALID,0.912326,
2005-08-16, 01:22:00,VALID,916.095,VALID,0,VALID,90.1504,VALID,-0.0169808,VALID,20.9984,VALID,142,VALID,0.930259,
2005-08-16, 01:23:00,VALID,916.084,VALID,0,VALID,90.2216,VALID,-0.0169808,VALID,20.9855,VALID,155,VALID,0.975174,
2005-08-16, 01:24:00,VALID,916.083,VALID,0,VALID,90.3259,VALID,0,VALID,20.979,VALID,142,VALID,0.726563,
2005-08-16, 01:25:00,VALID,916.066,VALID,0,VALID,90.345,VALID,-0.0169808,VALID,20.9696,VALID,144,VALID,0.699929,
2005-08-16, 01:26:00,VALID,916.067,VALID,0,VALID,90.3055,VALID,0,VALID,20.9723,VALID,151,VALID,1.08803,
2005-08-16, 01:27:00,VALID,916.056,VALID,0,VALID,90.1046,VALID,0,VALID,20.9982,VALID,166,VALID,1.01871,
2005-08-16, 01:28:00,VALID,916.045,VALID,0,VALID,90.0232,VALID,0,VALID,21.0041,VALID,149,VALID,0.843941,
2005-08-16, 01:29:00,VALID,916.02,VALID,0,VALID,90.0957,VALID,0.0509425,VALID,20.9842,VALID,145,VALID,0.828472,
2005-08-16, 01:30:00,VALID,915.983,VALID,0,VALID,90.1746,VALID,0.0679233,VALID,20.9747,VALID,147,VALID,0.272743,
2005-08-16, 01:31:00,VALID,915.947,VALID,0,VALID,90.3055,VALID,0.101885,VALID,20.9382,VALID,148,VALID,0.395389,
2005-08-16, 01:32:00,VALID,915.92,VALID,0,VALID,90.3246,VALID,0.101885,VALID,20.9228,VALID,120,VALID,0.769804,
2005-08-16, 01:33:00,VALID,915.913,VALID,0,VALID,90.4467,VALID,0.101885,VALID,20.8733,VALID,118,VALID,0.664621,
2005-08-16, 01:34:00,VALID,915.882,VALID,0,VALID,90.5586,VALID,0.118866,VALID,20.8544,VALID,115,VALID,0.442116,
2005-08-16, 01:35:00,VALID,915.874,VALID,0,VALID,90.7201,VALID,0.101885,VALID,20.8324,VALID,115,VALID,0.331055,
2005-08-16, 01:36:00,VALID,915.859,VALID,0,VALID,90.8358,VALID,0.0679233,VALID,20.8033,VALID,115,VALID,0.306108,
2005-08-16, 01:37:00,VALID,915.838,VALID,0,VALID,90.9299,VALID,0.0849042,VALID,20.7906,VALID,128,VALID,0.478087,
2005-08-16, 01:38:00,VALID,915.823,VALID,0,VALID,90.9846,VALID,0.0849042,VALID,20.7581,VALID,174,VALID,0.455221,
2005-08-16, 01:39:00,VALID,915.831,VALID,0,VALID,90.8727,VALID,0.0509425,VALID,20.7225,VALID,155,VALID,0.363009,
2005-08-16, 01:40:00,VALID,915.823,VALID,0,VALID,90.7875,VALID,-0.0509425,VALID,20.6528,VALID,144,VALID,0.107376,
2005-08-16, 01:41:00,VALID,915.802,VALID,0,VALID,91.2605,VALID,-0.0169808,VALID,20.5949,VALID,139,VALID,0.366642,
2005-08-16, 01:42:00,VALID,915.789,VALID,0,VALID,91.7831,VALID,0,VALID,20.5857,VALID,158,VALID,0.755952,
2005-08-16, 01:43:00,VALID,915.787,VALID,0,VALID,91.6191,VALID,-0.0339617,VALID,20.6274,VALID,173,VALID,0.598133,
2005-08-16, 01:44:00,VALID,915.775,VALID,0,VALID,91.3241,VALID,-0.0509425,VALID,20.6754,VALID,166,VALID,0.513281,
2005-08-16, 01:45:00,VALID,915.796,VALID,0,VALID,91.1791,VALID,-0.0169808,VALID,20.6883,VALID,149,VALID,1.14615,
2005-08-16, 01:46:00,VALID,915.8,VALID,0,VALID,91.1245,VALID,-0.0339617,VALID,20.7308,VALID,152,VALID,0.968572,
2005-08-16, 01:47:00,VALID,915.804,VALID,0,VALID,90.9897,VALID,-0.0679233,VALID,20.7564,VALID,169,VALID,0.941602,
2005-08-16, 01:48:00,VALID,915.796,VALID,0,VALID,90.865,VALID,-0.0339617,VALID,20.789,VALID,165,VALID,1.01701,
2005-08-16, 01:49:00,VALID,915.779,VALID,0,VALID,90.5866,VALID,-0.0509425,VALID,20.8178,VALID,154,VALID,1.00586,
2005-08-16, 01:50:00,VALID,915.754,VALID,0,VALID,90.3628,VALID,-0.0339617,VALID,20.8697,VALID,152,VALID,0.694949,
2005-08-16, 01:51:00,VALID,915.72,VALID,0,VALID,90.1936,VALID,-0.0339617,VALID,20.9182,VALID,140,VALID,1.35249,
2005-08-16, 01:52:00,VALID,915.69,VALID,0,VALID,89.9648,VALID,-0.0169808,VALID,20.9403,VALID,147,VALID,1.58775,
2005-08-16, 01:53:00,VALID,915.679,VALID,0,VALID,89.7994,VALID,-0.0339617,VALID,20.9796,VALID,142,VALID,1.73723,
2005-08-16, 01:54:00,VALID,915.662,VALID,0,VALID,89.4803,VALID,-0.0509425,VALID,21.0245,VALID,136,VALID,2.00484,
2005-08-16, 01:55:00,VALID,915.671,VALID,0,VALID,89.2158,VALID,-0.0509425,VALID,21.0924,VALID,131,VALID,1.4112,
2005-08-16, 01:56:00,VALID,915.653,VALID,0,VALID,89.081,VALID,-0.0169808,VALID,21.1174,VALID,137,VALID,0.890807,
2005-08-16, 01:57:00,VALID,915.671,VALID,0,VALID,88.992,VALID,-0.0679233,VALID,21.157,VALID,163,VALID,1.09393,
2005-08-16, 01:58:00,VALID,915.687,VALID,0,VALID,88.9322,VALID,-0.0339617,VALID,21.1565,VALID,163,VALID,1.14807,
2005-08-16, 01:59:00,VALID,915.692,VALID,0,VALID,88.8648,VALID,-0.0339617,VALID,21.1731,VALID,173,VALID,0.964658,
2005-08-16, 02:00:00,VALID,915.706,VALID,0,VALID,88.8737,VALID,-0.0169808,VALID,21.1699,VALID,184,VALID,0.648819,
2005-08-16, 02:01:00,VALID,915.72,VALID,0,VALID,88.9589,VALID,-0.0509425,VALID,21.157,VALID,183,VALID,0.940407,
2005-08-16, 02:02:00,VALID,915.735,VALID,0,VALID,88.9093,VALID,-0.0339617,VALID,21.1538,VALID,146,VALID,0.676314,
2005-08-16, 02:03:00,VALID,915.722,VALID,0,VALID,88.9055,VALID,-0.0339617,VALID,21.1443,VALID,161,VALID,1.0625,
2005-08-16, 02:04:00,VALID,915.703,VALID,0,VALID,88.9271,VALID,-0.0339617,VALID,21.1411,VALID,168,VALID,1.62918,
2005-08-16, 02:05:00,VALID,915.68,VALID,0,VALID,88.7288,VALID,-0.0509425,VALID,21.1863,VALID,168,VALID,0.611719,
2005-08-16, 02:06:00,VALID,915.657,VALID,0,VALID,88.6359,VALID,-0.0169808,VALID,21.1764,VALID,162,VALID,0.248285,
2005-08-16, 02:07:00,VALID,915.63,VALID,0,VALID,88.7262,VALID,-0.0169808,VALID,21.1634,VALID,132,VALID,0.867788,
2005-08-16, 02:08:00,VALID,915.608,VALID,0,VALID,88.7211,VALID,-0.0679233,VALID,21.1575,VALID,124,VALID,1.21528,
2005-08-16, 02:09:00,VALID,915.585,VALID,0,VALID,88.5418,VALID,-0.0169808,VALID,21.1664,VALID,153,VALID,0.958398,
2005-08-16, 02:10:00,VALID,915.583,VALID,0,VALID,88.3727,VALID,-0.0169808,VALID,21.1893,VALID,166,VALID,1.20046,
2005-08-16, 02:11:00,VALID,915.567,VALID,0,VALID,88.2824,VALID,-0.0509425,VALID,21.2154,VALID,157,VALID,1.11858,
2005-08-16, 02:12:00,VALID,915.568,VALID,0,VALID,88.407,VALID,-0.0169808,VALID,21.2014,VALID,152,VALID,1.2752,
2005-08-16, 02:13:00,VALID,915.534,VALID,0,VALID,88.4948,VALID,-0.0679233,VALID,21.1834,VALID,144,VALID,1.24574,
2005-08-16, 02:14:00,VALID,915.517,VALID,0,VALID,88.594,VALID,-0.0509425,VALID,21.1373,VALID,159,VALID,1.19459,
2005-08-16, 02:15:00,VALID,915.502,VALID,0,VALID,88.6766,VALID,0,VALID,21.1112,VALID,158,VALID,1.05996,
2005-08-16, 02:16:00,VALID,915.469,VALID,0,VALID,88.716,VALID,0,VALID,21.0789,VALID,146,VALID,0.869234,
2005-08-16, 02:17:00,VALID,915.445,VALID,0,VALID,89.0581,VALID,-0.0169808,VALID,21.0377,VALID,165,VALID,0.876524,
2005-08-16, 02:18:00,VALID,915.416,VALID,0,VALID,89.1598,VALID,-0.0339617,VALID,21.031,VALID,163,VALID,0.906428,
2005-08-16, 02:19:00,VALID,915.422,VALID,0,VALID,89.1382,VALID,-0.0339617,VALID,21.0049,VALID,170,VALID,0.931402,
2005-08-16, 02:20:00,VALID,915.398,VALID,0,VALID,89.3086,VALID,-0.0169808,VALID,20.9696,VALID,173,VALID,1.54611,
2005-08-16, 02:21:00,VALID,915.377,VALID,0,VALID,89.5858,VALID,-0.0339617,VALID,20.9074,VALID,157,VALID,1.61979,
2005-08-16, 02:22:00,VALID,915.361,VALID,0,VALID,89.7969,VALID,-0.0169808,VALID,20.8657,VALID,177,VALID,0.892113,
2005-08-16, 02:23:00,VALID,915.347,VALID,0,VALID,89.9419,VALID,-0.0169808,VALID,20.8401,VALID,135,VALID,0.275436,
2005-08-16, 02:24:00,VALID,915.33,VALID,0,VALID,90.1288,VALID,0,VALID,20.7844,VALID,156,VALID,0.679129,
2005-08-16, 02:25:00,VALID,915.34,VALID,0,VALID,90.2814,VALID,-0.0509425,VALID,20.7586,VALID,159,VALID,0.896701,
2005-08-16, 02:26:00,VALID,915.334,VALID,0,VALID,90.2432,VALID,-0.0339617,VALID,20.7365,VALID,175,VALID,0.694586,
2005-08-16, 02:27:00,VALID,915.35,VALID,0,VALID,90.4022,VALID,-0.0169808,VALID,20.6977,VALID,172,VALID,0.513951,
2005-08-16, 02:28:00,VALID,915.355,VALID,0,VALID,90.701,VALID,0,VALID,20.6652,VALID,172,VALID,1.25709,
2005-08-16, 02:29:00,VALID,915.333,VALID,0,VALID,90.7595,VALID,0.0169808,VALID,20.6719,VALID,180,VALID,1.0257,
2005-08-16, 02:30:00,VALID,915.339,VALID,0,VALID,90.5751,VALID,0,VALID,20.6953,VALID,167,VALID,1.05526,
2005-08-16, 02:31:00,VALID,915.357,VALID,0,VALID,90.5039,VALID,0,VALID,20.7077,VALID,158,VALID,0.954459,
2005-08-16, 02:32:00,VALID,915.363,VALID,0,VALID,90.3844,VALID,0,VALID,20.7273,VALID,207,VALID,0.935156,
2005-08-16, 02:33:00,VALID,915.365,VALID,0,VALID,90.2547,VALID,-0.0169808,VALID,20.7236,VALID,180,VALID,1.15705,
2005-08-16, 02:34:00,VALID,915.364,VALID,0,VALID,90.2114,VALID,0,VALID,20.7276,VALID,172,VALID,0.897166,
2005-08-16, 02:35:00,VALID,915.353,VALID,0,VALID,90.2699,VALID,-0.0169808,VALID,20.7012,VALID,180,VALID,0.670516,
2005-08-16, 02:36:00,VALID,915.344,VALID,0,VALID,90.467,VALID,0,VALID,20.6789,VALID,165,VALID,0.9016,
2005-08-16, 02:37:00,VALID,915.322,VALID,0,VALID,90.5001,VALID,-0.0509425,VALID,20.656,VALID,168,VALID,0.810192,
2005-08-16, 02:38:00,VALID,915.331,VALID,0,VALID,90.4759,VALID,-0.0339617,VALID,20.646,VALID,170,VALID,0.98402,
2005-08-16, 02:39:00,VALID,915.325,VALID,0,VALID,90.4162,VALID,-0.0169808,VALID,20.6592,VALID,166,VALID,0.730291,
2005-08-16, 02:40:00,VALID,915.325,VALID,0,VALID,90.3717,VALID,-0.0169808,VALID,20.6659,VALID,166,VALID,0.681548,
2005-08-16, 02:41:00,VALID,915.321,VALID,0,VALID,90.4492,VALID,-0.0339617,VALID,20.653,VALID,170,VALID,1.05673,
2005-08-16, 02:42:00,VALID,915.34,VALID,0,VALID,90.5459,VALID,0,VALID,20.6694,VALID,154,VALID,1.40554,
2005-08-16, 02:43:01,VALID,915.341,VALID,0,VALID,90.2165,VALID,-0.0339617,VALID,20.7176,VALID,166,VALID,1.37246,
2005-08-16, 02:44:00,VALID,915.354,VALID,0,VALID,89.8439,VALID,-0.0339617,VALID,20.7852,VALID,167,VALID,1.13876,
2005-08-16, 02:45:00,VALID,915.361,VALID,0,VALID,89.7066,VALID,-0.0679233,VALID,20.7984,VALID,172,VALID,0.679129,
2005-08-16, 02:46:00,VALID,915.344,VALID,0,VALID,89.7651,VALID,-0.0169808,VALID,20.8016,VALID,184,VALID,0.473357,
2005-08-16, 02:47:01,VALID,915.34,VALID,0,VALID,89.7448,VALID,-0.0169808,VALID,20.8051,VALID,185,VALID,0.60191,
2005-08-16, 02:48:00,VALID,915.328,VALID,0,VALID,89.7257,VALID,0,VALID,20.789,VALID,182,VALID,0.813953,
2005-08-16, 02:49:00,VALID,915.33,VALID,0,VALID,89.7041,VALID,0,VALID,20.7701,VALID,171,VALID,0.735156,
2005-08-16, 02:50:00,VALID,915.326,VALID,0,VALID,89.8109,VALID,-0.0509425,VALID,20.7311,VALID,159,VALID,0.524826,
2005-08-16, 02:51:00,VALID,915.344,VALID,0,VALID,89.9673,VALID,-0.0509425,VALID,20.6955,VALID,174,VALID,0.854403,
2005-08-16, 02:52:01,VALID,915.357,VALID,0,VALID,90.0894,VALID,-0.0679233,VALID,20.6794,VALID,172,VALID,0.989879,
2005-08-16, 02:53:00,VALID,915.385,VALID,0,VALID,90.0741,VALID,-0.0679233,VALID,20.712,VALID,174,VALID,1.46755,
2005-08-16, 02:54:00,VALID,915.396,VALID,0,VALID,90.0449,VALID,-0.0509425,VALID,20.7512,VALID,127,VALID,1.05929,
2005-08-16, 02:55:01,VALID,915.402,VALID,0,VALID,89.7511,VALID,-0.0509425,VALID,20.7895,VALID,144,VALID,0.62391,
2005-08-16, 02:56:00,VALID,915.36,VALID,0,VALID,89.4993,VALID,-0.0509425,VALID,20.8414,VALID,166,VALID,0.967507,
2005-08-16, 02:57:01,VALID,915.341,VALID,0,VALID,89.2488,VALID,-0.0679233,VALID,20.8772,VALID,174,VALID,0.77066,
2005-08-16, 02:58:00,VALID,915.344,VALID,0,VALID,89.0683,VALID,-0.0679233,VALID,20.9026,VALID,181,VALID,0.983232,
2005-08-16, 02:59:00,VALID,915.333,VALID,0,VALID,89.0149,VALID,-0.0339617,VALID,20.9179,VALID,173,VALID,1.40861,
2005-08-16, 03:00:01,VALID,915.328,VALID,0,VALID,89.0403,VALID,0.0339617,VALID,20.9144,VALID,180,VALID,1.12538,
2005-08-16, 03:01:00,VALID,915.33,VALID,0,VALID,89.1954,VALID,0.0509425,VALID,20.8848,VALID,169,VALID,1.37519,
2005-08-16, 03:02:01,VALID,915.332,VALID,0,VALID,89.3239,VALID,0.0679233,VALID,20.8619,VALID,166,VALID,1.00817,
2005-08-16, 03:03:00,VALID,915.348,VALID,0,VALID,89.4116,VALID,0.101885,VALID,20.8294,VALID,167,VALID,0.633929,
2005-08-16, 03:04:00,VALID,915.333,VALID,0,VALID,89.5019,VALID,0.0849042,VALID,20.8033,VALID,167,VALID,0.587936,
2005-08-16, 03:05:01,VALID,915.331,VALID,0,VALID,89.5858,VALID,0.0849042,VALID,20.7877,VALID,181,VALID,1.05362,
2005-08-16, 03:06:01,VALID,915.319,VALID,0,VALID,89.685,VALID,0.0679233,VALID,20.7616,VALID,163,VALID,1.21633,
2005-08-16, 03:07:00,VALID,915.299,VALID,0,VALID,89.6163,VALID,0.0509425,VALID,20.772,VALID,173,VALID,0.638951,
2005-08-16, 03:08:00,VALID,915.284,VALID,0,VALID,89.7435,VALID,0.0679233,VALID,20.7489,VALID,144,VALID,0.950994,
2005-08-16, 03:09:01,VALID,915.248,VALID,0,VALID,89.6888,VALID,0.0509425,VALID,20.765,VALID,139,VALID,0.591273,
2005-08-16, 03:10:00,VALID,915.244,VALID,0,VALID,89.4981,VALID,0.0339617,VALID,20.7645,VALID,135,VALID,0.521875,
2005-08-16, 03:11:01,VALID,915.253,VALID,0,VALID,89.5489,VALID,0.0339617,VALID,20.7656,VALID,144,VALID,0.894345,
2005-08-16, 03:12:00,VALID,915.251,VALID,0,VALID,89.5795,VALID,0.0339617,VALID,20.7621,VALID,151,VALID,1.0158,
2005-08-16, 03:13:00,VALID,915.245,VALID,0,VALID,89.3951,VALID,0.0509425,VALID,20.8038,VALID,187,VALID,1.16368,
2005-08-16, 03:14:00,VALID,915.253,VALID,0,VALID,88.9449,VALID,0,VALID,20.8848,VALID,170,VALID,0.832961,
2005-08-16, 03:15:00,VALID,915.257,VALID,0,VALID,88.5647,VALID,-0.0509425,VALID,20.9475,VALID,180,VALID,0.853165,
2005-08-16, 03:16:01,VALID,915.27,VALID,0,VALID,88.3371,VALID,-0.0679233,VALID,20.9863,VALID,177,VALID,0.662574,
2005-08-16, 03:17:00,VALID,915.269,VALID,0,VALID,88.2773,VALID,-0.0849042,VALID,20.9825,VALID,169,VALID,0.472479,
2005-08-16, 03:18:00,VALID,915.273,VALID,0,VALID,88.5253,VALID,-0.0509425,VALID,20.9475,VALID,141,VALID,0.935082,
2005-08-16, 03:19:00,VALID,915.267,VALID,0,VALID,88.7923,VALID,-0.0509425,VALID,20.9053,VALID,151,VALID,0.92351,
2005-08-16, 03:20:00,VALID,915.27,VALID,0,VALID,88.7745,VALID,-0.0169808,VALID,20.8764,VALID,140,VALID,0.991071,
2005-08-16, 03:21:00,VALID,915.284,VALID,0,VALID,88.9017,VALID,-0.0509425,VALID,20.8506,VALID,134,VALID,1.14684,
2005-08-16, 03:22:01,VALID,915.285,VALID,0,VALID,88.9335,VALID,-0.0509425,VALID,20.8374,VALID,142,VALID,0.79652,
2005-08-16, 03:23:00,VALID,915.29,VALID,0,VALID,89.0835,VALID,-0.0339617,VALID,20.8337,VALID,167,VALID,0.966974,
2005-08-16, 03:24:00,VALID,915.303,VALID,0,VALID,89.1458,VALID,0,VALID,20.8339,VALID,159,VALID,1.05781,
2005-08-16, 03:25:00,VALID,915.308,VALID,0,VALID,89.1306,VALID,-0.0339617,VALID,20.8312,VALID,155,VALID,0.933866,
2005-08-16, 03:26:01,VALID,915.291,VALID,0,VALID,89.0149,VALID,-0.0169808,VALID,20.8633,VALID,152,VALID,0.791424,
2005-08-16, 03:27:00,VALID,915.279,VALID,0,VALID,88.9729,VALID,0,VALID,20.8665,VALID,162,VALID,1.03609,
2005-08-16, 03:28:01,VALID,915.283,VALID,0,VALID,88.9106,VALID,-0.0339617,VALID,20.87,VALID,146,VALID,1.12145,
2005-08-16, 03:29:00,VALID,915.28,VALID,0,VALID,88.7071,VALID,0.0339617,VALID,20.908,VALID,132,VALID,0.542696,
2005-08-16, 03:30:00,VALID,915.274,VALID,0,VALID,88.505,VALID,0.0509425,VALID,20.9424,VALID,135,VALID,0.557292,
2005-08-16, 03:31:00,VALID,915.277,VALID,0,VALID,88.4045,VALID,0.0339617,VALID,20.9715,VALID,169,VALID,0.607922,